Location: Csohesd
(46.2500°N, 22.6167°E)
Time: 13:39:29
(UTC+00:00)

Cosmos 2360 Rocket - Pass Details

Date: 21 October 2021
Orbit: 832 x 846 km, 71.0° (Epoch: 07 December)

Event Time Altitude Azimuth Distance (km) Brightness Sun altitude
Rises 19:02:38 0° 232° (SW) 3,379 5.6 -36.4°
Reaches altitude 10° 19:05:15 10° 241° (WSW) 2,451 4.9 -36.8°
Enters shadow 19:08:39 29° 271° (W) 1,494 3.8 -37.3°
